Time,TemperatureF,DewpointF,PressureIn,WindDirection,WindDirectionDegrees,WindSpeedMPH,WindSpeedGustMPH,Humidity,HourlyPrecipIn,Conditions,Clouds,dailyrainin,SoftwareType,DateUTC
2013-09-03 00:00:00,75.3,69.2,29.95,North,0,0.0,0.0,80,0.00,,,0.04,WUHU216HW,2013-09-03 05:00:00,
2013-09-03 00:49:00,74.8,68.3,29.94,North,0,0.0,0.0,80,0.00,,,0.00,WUHU216HW,2013-09-03 05:49:00,
2013-09-03 03:42:00,70.8,65.7,29.93,North,0,0.0,0.0,84,0.00,,,0.00,WUHU216HW,2013-09-03 08:42:00,
2013-09-03 03:49:00,70.8,65.7,29.93,North,0,0.0,0.0,84,0.00,,,0.00,WUHU216HW,2013-09-03 08:49:00,
2013-09-03 04:50:00,69.4,64.6,29.92,North,0,0.0,0.0,85,0.00,,,0.00,WUHU216HW,2013-09-03 09:50:00,
2013-09-03 04:57:00,69.4,64.6,29.92,North,0,0.0,0.0,85,0.00,,,0.00,WUHU216HW,2013-09-03 09:57:00,
2013-09-03 05:20:00,68.7,64.0,29.92,North,0,0.0,0.0,86,0.00,,,0.00,WUHU216HW,2013-09-03 10:20:00,
2013-09-03 05:25:00,68.7,64.0,29.92,North,0,0.0,0.0,86,0.00,,,0.00,WUHU216HW,2013-09-03 10:25:00,
2013-09-03 06:04:00,68.1,64.1,29.94,North,0,0.0,0.0,87,0.00,,,0.00,WUHU216HW,2013-09-03 11:04:00,
2013-09-03 06:09:00,68.1,64.1,29.94,North,0,0.0,0.0,87,0.00,,,0.00,WUHU216HW,2013-09-03 11:09:00,
2013-09-03 06:14:00,68.1,64.1,29.94,North,0,0.0,0.0,87,0.00,,,0.00,WUHU216HW,2013-09-03 11:14:00,
2013-09-03 07:27:00,67.2,63.2,29.95,North,0,0.0,0.0,88,0.00,,,0.00,WUHU216HW,2013-09-03 12:27:00,
2013-09-03 07:34:00,67.2,63.2,29.95,North,0,0.0,0.0,88,0.00,,,0.00,WUHU216HW,2013-09-03 12:34:00,
2013-09-03 08:19:00,69.6,65.8,29.96,North,0,0.0,0.0,88,0.00,,,0.00,WUHU216HW,2013-09-03 13:19:00,
2013-09-03 09:24:00,77.3,69.5,29.98,North,0,0.0,0.0,77,0.00,,,0.00,WUHU216HW,2013-09-03 14:24:00,
2013-09-03 10:05:00,84.7,70.2,29.98,North,0,0.0,0.0,62,0.00,,,0.00,WUHU216HW,2013-09-03 15:05:00,
2013-09-03 11:04:00,90.6,68.2,30.00,North,0,0.0,0.0,48,0.00,,,0.00,WUHU216HW,2013-09-03 16:04:00,
2013-09-03 12:14:00,96.6,67.5,29.98,North,0,0.0,0.0,38,0.00,,,0.00,WUHU216HW,2013-09-03 17:14:00,
2013-09-03 13:26:00,98.4,66.6,29.96,North,0,0.0,0.0,36,0.00,,,0.00,WUHU216HW,2013-09-03 18:26:00,
2013-09-03 13:39:00,101.8,66.3,29.96,North,0,0.0,0.0,32,0.00,,,0.00,WUHU216HW,2013-09-03 18:39:00,
2013-09-03 13:53:00,98.9,65.5,29.95,North,0,0.0,0.0,35,0.00,,,0.00,WUHU216HW,2013-09-03 18:53:00,
2013-09-03 14:53:00,96.0,65.4,29.93,North,0,0.0,0.0,37,0.00,,,0.00,WUHU216HW,2013-09-03 19:53:00,
2013-09-03 14:54:00,96.2,65.5,29.93,North,0,0.0,0.0,37,0.00,,,0.00,WUHU216HW,2013-09-03 19:54:00,
2013-09-03 14:59:00,96.0,65.4,29.93,North,0,0.0,0.0,37,0.00,,,0.00,WUHU216HW,2013-09-03 19:59:00,
2013-09-03 15:25:00,98.2,66.5,29.91,North,0,0.0,0.0,36,0.00,,,0.00,WUHU216HW,2013-09-03 20:25:00,
2013-09-03 15:30:00,101.8,67.1,29.90,North,0,0.0,0.0,33,0.00,,,0.00,WUHU216HW,2013-09-03 20:30:00,
2013-09-03 15:35:00,102.9,66.4,29.90,North,0,0.0,0.0,31,0.00,,,0.00,WUHU216HW,2013-09-03 20:35:00,
2013-09-03 15:40:00,102.9,66.4,29.90,North,0,0.0,0.0,31,0.00,,,0.00,WUHU216HW,2013-09-03 20:40:00,
2013-09-03 17:22:00,96.9,63.7,29.87,North,0,0.0,0.0,34,0.00,,,0.00,WUHU216HW,2013-09-03 22:22:00,
2013-09-03 18:06:00,97.5,63.3,29.87,North,0,0.0,0.0,33,0.00,,,0.00,WUHU216HW,2013-09-03 23:06:00,
2013-09-03 18:09:00,96.4,65.7,29.87,North,0,0.0,0.0,37,0.00,,,0.00,WUHU216HW,2013-09-03 23:09:00,
2013-09-03 18:11:00,97.1,65.5,29.87,North,0,0.0,0.0,36,0.00,,,0.00,WUHU216HW,2013-09-03 23:11:00,
2013-09-03 18:16:00,96.4,65.7,29.87,North,0,0.0,0.0,37,0.00,,,0.00,WUHU216HW,2013-09-03 23:16:00,
2013-09-03 20:18:00,86.3,64.9,29.89,North,0,0.0,0.0,49,0.00,,,0.00,WUHU216HW,2013-09-04 01:18:00,
2013-09-03 20:23:00,85.6,64.9,29.89,North,0,0.0,0.0,50,0.00,,,0.00,WUHU216HW,2013-09-04 01:23:00,
2013-09-03 20:28:00,85.6,64.9,29.89,North,0,0.0,0.0,50,0.00,,,0.00,WUHU216HW,2013-09-04 01:28:00,
2013-09-03 20:44:00,83.8,64.8,29.89,North,0,0.0,0.0,53,0.00,,,0.00,WUHU216HW,2013-09-04 01:44:00,
2013-09-03 21:36:00,80.4,64.2,29.90,North,0,0.0,0.0,58,0.00,,,0.00,WUHU216HW,2013-09-04 02:36:00,
2013-09-03 21:41:00,80.4,64.2,29.91,North,0,0.0,0.0,58,0.00,,,0.00,WUHU216HW,2013-09-04 02:41:00,
2013-09-03 22:50:00,80.9,64.2,29.92,North,0,0.0,0.0,57,0.00,,,0.00,WUHU216HW,2013-09-04 03:50:00,
2013-09-03 23:27:00,82.2,63.2,29.92,North,0,0.0,0.0,54,0.00,,,0.00,WUHU216HW,2013-09-04 04:27:00,
2013-09-03 23:57:00,81.1,63.8,29.92,North,0,0.0,0.0,56,0.00,,,0.00,WUHU216HW,2013-09-04 04:57:00,